sat.trackr.live / text

‹ back to catalog

RESOURCESAT-2A

NORAD 41877 · 2016-074A

PAYLOAD ACTIVE UNKNOWN

§ Identity

Operator
Country
IND
Launch date
2016-12-07
Launch site
SRILR
Launch vehicle
Mass (kg)
RCS (m²)
4.16

Purposes: earth_obs

External: N2YO · Heavens-Above · Gunter

§ Orbital elements

Epoch: 2026-09-20T05:27:55.797696Z

Period
101.29 min
Inclination
98.7451°
Eccentricity
0.0002720
Mean motion
14.21613710 rev/d
Perigee alt
817.9 km
Apogee alt
821.9 km
Semi-major
7,198.0 km
B*
3.1519e-6
RAAN
335.9179°
Arg perigee
141.6249°
Mean anomaly
218.5122°
Rev number
50,780

§ Raw data

RESOURCESAT-2A1 41877U 16074A   26263.22772914 -.00000037  00000+0  31519-5 0  99922 41877  98.7451 335.9179 0002720 141.6249 218.5122 14.21613710507805

JSON: /api/v1/satellites/41877 · /tle

For live sub-satellite position, see the globe view (requires WebGL).

§ Visibility from observer

Set your observer location to see the next 7 days of passes ≥ 10°. The values pass through the URL so the page stays shareable.

No JS? Fill the form by hand. The geolocation button needs JavaScript.

§ Radio — SatNOGS DB

ModeDescriptionDownlinkUplink
BPSK S-band telemetry 2.250 GHz

1 transmitter · refreshed weekly from db.satnogs.org